Knoxville, TN

8:34 PM EDT on June 27, 2017 (GMT -0400)
McGhee Tyson

Weather History for KTYS - March, 2013

Change the Weather History Date:

Friday, March 15, 2013

  Actual Average Record
Temperature  
Mean Temperature 51 °F 50 °F  
Max Temperature 68 °F 61 °F 82 °F (2012)
Min Temperature 33 °F 39 °F 6 °F (1993)
Degree Days  
Heating Degree Days 14 15  
Month to date heating degree days 353 255  
Since 1 July heating degree days 3045 3151  
Cooling Degree Days 0 0  
Month to date cooling degree days 0 0  
Year to date cooling degree days 2 0  
Growing Degree Days 1 (Base 50)    
Moisture  
Dew Point 34 °F    
Average Humidity 58    
Maximum Humidity 82    
Minimum Humidity 34    
Precipitation  
Precipitation T in 0.14 in 2.26 in (1875)
Month to date precipitation 2.49 2.06  
Year to date precipitation 17.58 10.64  
Snow  
Snow 0.00 in 0.00 in - ()
Month to date snowfall 0.9 0.5  
Since 1 July snowfall 3.5 5.6  
Snow Depth 0.00 in    
Sea Level Pressure  
Sea Level Pressure 30.07 in    
Wind  
Wind Speed 10 mph (SW)    
Max Wind Speed 24 mph    
Max Gust Speed 28 mph    
Visibility 10 miles    
Events      
T = Trace of Precipitation, MM = Missing Value Source: NWS Daily Summary

Daily Weather History Graph

Daily Weather History Graph

Search for Another Location

Airport or City:

Trip Planner

Search our weather history database for the weather conditions in past years. The results will help you decide how hot, cold, wet, or windy it might be!

Date:

Astronomy

Mar. 15, 2013 Rise Set
Actual Time 7:46 AM EDT 7:43 PM EDT
Civil Twilight 7:20 AM EDT 8:09 PM EDT
Nautical Twilight 6:51 AM EDT 8:38 PM EDT
Astronomical Twilight 6:21 AM EDT 9:08 PM EDT
Moon 9:44 AM EDT (3/15) 11:47 PM EDT (3/15)
Length of Visible Light 12h 48m
Length of Day
11h 57m
Waxing Crescent, 15% of the Moon is Illuminated
Mar 15
Waxing Crescent
Mar 19
First Quarter
Mar 27
Full
Apr 3
Last Quarter
Apr 10
New

Hourly Weather History & Observations

Time (EDT) Temp. Windchill Dew Point Humidity Pressure Visibility Wind Dir Wind Speed Gust Speed Precip Events Conditions
12:53 AM 41.0 °F 38.0 °F 25.0 °F 53% 30.26 in 10.0 mi WSW 4.6 mph - N/A   Overcast
1:53 AM 39.9 °F 35.8 °F 27.0 °F 60% 30.25 in 10.0 mi SSW 5.8 mph - N/A   Overcast
2:53 AM 39.2 °F 34.2 °F 28.4 °F 65% 30.23 in 10.0 mi SSW 6.9 mph - N/A   Overcast
3:53 AM 35.1 °F 29.3 °F 28.9 °F 78% 30.23 in 10.0 mi SW 6.9 mph - N/A   Scattered Clouds
4:53 AM 36.0 °F - 30.0 °F 79% 30.20 in 10.0 mi Calm Calm - N/A   Scattered Clouds
5:53 AM 35.1 °F 31.0 °F 28.9 °F 78% 30.18 in 10.0 mi West 4.6 mph - N/A   Clear
6:53 AM 35.1 °F - 28.9 °F 78% 30.17 in 10.0 mi Calm Calm - N/A   Scattered Clouds
7:53 AM 36.0 °F - 30.9 °F 82% 30.17 in 10.0 mi Calm Calm - N/A   Mostly Cloudy
8:53 AM 36.0 °F - 30.9 °F 82% 30.17 in 10.0 mi Calm Calm - N/A   Partly Cloudy
9:53 AM 42.1 °F 40.2 °F 33.1 °F 70% 30.16 in 10.0 mi SW 3.5 mph - N/A   Clear
10:53 AM 46.9 °F - 34.0 °F 61% 30.13 in 10.0 mi SW 4.6 mph - N/A   Clear
11:53 AM 54.0 °F - 32.0 °F 43% 30.10 in 10.0 mi WSW 23.0 mph 26.5 mph N/A   Clear
12:53 PM 59.0 °F - 33.1 °F 38% 30.06 in 10.0 mi SW 16.1 mph - N/A   Partly Cloudy
1:53 PM 61.0 °F - 35.1 °F 38% 30.04 in 10.0 mi SW 10.4 mph - N/A   Scattered Clouds
2:53 PM 64.0 °F - 37.0 °F 37% 30.00 in 10.0 mi SW 16.1 mph - N/A   Scattered Clouds
3:53 PM 66.0 °F - 37.9 °F 36% 29.96 in 10.0 mi SSW 15.0 mph - N/A   Scattered Clouds
4:53 PM 68.0 °F - 39.0 °F 35% 29.94 in 10.0 mi SW 18.4 mph 24.2 mph N/A   Scattered Clouds
5:53 PM 68.0 °F - 39.9 °F 36% 29.93 in 10.0 mi SW 17.3 mph 25.3 mph N/A   Scattered Clouds
6:53 PM 66.2 °F - 39.2 °F 37% 29.92 in 10.0 mi SW 16.1 mph 21.9 mph N/A   Mostly Cloudy
7:53 PM 64.9 °F - 41.0 °F 42% 29.92 in 10.0 mi SW 12.7 mph - N/A   Mostly Cloudy
8:53 PM 59.0 °F - 41.0 °F 51% 29.91 in 10.0 mi SW 8.1 mph - N/A   Overcast
9:53 PM 61.0 °F - 42.1 °F 50% 29.91 in 10.0 mi SW 10.4 mph - N/A   Overcast
10:53 PM 61.0 °F - 42.1 °F 50% 29.90 in 10.0 mi SW 10.4 mph - N/A   Overcast
11:53 PM 62.1 °F - 42.1 °F 48% 29.89 in 10.0 mi SW 15.0 mph - N/A   Overcast